Charleroi, Belgium

3:21 AM CET on February 08, 2016 (GMT +0100)
Brussels South

Weather History for EBCI - January, 2013

Change the Weather History Date:

Wednesday, January 30, 2013

  Actual Average Record
Temperature  
Mean Temperature 49 °F -  
Max Temperature 54 °F 43 °F 55 °F (2002)
Min Temperature 44 °F 32 °F 21 °F (1999)
Degree Days  
Heating Degree Days 16    
Moisture  
Dew Point 46 °F    
Average Humidity 83    
Maximum Humidity 100    
Minimum Humidity 69    
Precipitation  
Precipitation 0.28 in - - ()
Sea Level Pressure  
Sea Level Pressure 29.84 in    
Wind  
Wind Speed 20 mph ()    
Max Wind Speed 25 mph    
Max Gust Speed 40 mph    
Visibility 6.4 miles    
Events Rain    
Averages and records for this station are not official NWS values.
T = Trace of Precipitation, MM = Missing Value Source: Averaged Metar Reports

Daily Weather History Graph

Daily Weather History Graph

Search for Another Location

Airport or City:

Trip Planner

Search our weather history database for the weather conditions in past years. The results will help you decide how hot, cold, wet, or windy it might be!

Date:

Astronomy

Jan. 30, 2013 Rise Set
Actual Time 8:19 AM CET 5:31 PM CET
Civil Twilight 7:44 AM CET 6:07 PM CET
Nautical Twilight 7:05 AM CET 6:46 PM CET
Astronomical Twilight 6:26 AM CET 7:24 PM CET
Moon 9:44 PM CET (1/30) 9:13 AM CET (1/30)
Length of Visible Light 10h 22m
Length of Day
9h 11m
Waning Gibbous, 89% of the Moon is Illuminated
Jan 30
Waning Gibbous
Feb 3
Last Quarter
Feb 10
New
Feb 17
First Quarter
Feb 25
Full

Hourly Weather History & Observations

Time (CET) Temp. Windchill Dew Point Humidity Pressure Visibility Wind Dir Wind Speed Gust Speed Precip Events Conditions
12:20 AM 53.6 °F - 48.2 °F 82% 29.83 in 6.2 mi SW 24.2 mph - N/A   Mostly Cloudy
12:50 AM 53.6 °F - 48.2 °F 82% 29.83 in 6.2 mi SW 23.0 mph 34.5 mph N/A   Mostly Cloudy
1:00 AM 53 °F - 49 °F 80% 29.83 in 16 mi SW 22.4 mph - -   Overcast
1:20 AM 53.6 °F - 48.2 °F 82% 29.80 in 6.2 mi SSW 24.2 mph - N/A   Mostly Cloudy
1:50 AM 53.6 °F - 48.2 °F 82% 29.83 in 6.2 mi SSW 21.9 mph 35.7 mph N/A   Partly Cloudy
2:20 AM 53.6 °F - 48.2 °F 82% 29.80 in 6.2 mi SW 24.2 mph 38.0 mph N/A   Partly Cloudy
2:50 AM 51.8 °F - 50.0 °F 94% 29.80 in 4.3 mi SW 24.2 mph - N/A Rain Light Rain
3:20 AM 53.6 °F - 50.0 °F 88% 29.80 in 4.3 mi SSW 24.2 mph 35.7 mph N/A Rain Light Rain
3:50 AM 53.6 °F - 50.0 °F 88% 29.80 in 6.2 mi SSW 24.2 mph 35.7 mph N/A   Scattered Clouds
4:00 AM 54 °F - 49 °F 79% 29.81 in 16 mi SSW 24.6 mph - -   Partly Cloudy
4:20 AM 53.6 °F - 50.0 °F 88% 29.80 in 6.2 mi SW 24.2 mph - N/A   Scattered Clouds
4:50 AM 53.6 °F - 50.0 °F 88% 29.77 in 6.2 mi SSW 24.2 mph 38.0 mph N/A   Scattered Clouds
5:20 AM 53.6 °F - 50.0 °F 88% 29.77 in 6.2 mi SSW 19.6 mph - N/A   Mostly Cloudy
5:50 AM 53.6 °F - 50.0 °F 88% 29.77 in 6.2 mi SSW 23.0 mph - N/A   Mostly Cloudy
6:20 AM 53.6 °F - 50.0 °F 88% 29.74 in 6.2 mi SSW 23.0 mph 34.5 mph N/A Rain Light Rain
6:50 AM 53.6 °F - 50.0 °F 88% 29.74 in 6.2 mi SSW 23.0 mph 34.5 mph N/A   Mostly Cloudy
7:20 AM 53.6 °F - 50.0 °F 88% 29.74 in 6.2 mi SSW 25.3 mph 40.3 mph N/A   Mostly Cloudy
7:50 AM 51.8 °F - 51.8 °F 100% 29.74 in 2.2 mi SSW 25.3 mph 39.1 mph N/A Rain Rain
8:20 AM 53.6 °F - 51.8 °F 94% 29.71 in 2.2 mi SW 21.9 mph - N/A Rain Light Rain
8:50 AM 53.6 °F - 51.8 °F 94% 29.71 in 2.8 mi SSW 20.7 mph - N/A Rain Light Rain
9:20 AM 53.6 °F - 51.8 °F 94% 29.71 in 3.1 mi SW 23.0 mph - N/A Rain Light Rain
9:50 AM 53.6 °F - 51.8 °F 94% 29.71 in 3.1 mi SSW 21.9 mph - N/A Rain Light Rain
10:20 AM 53.6 °F - 51.8 °F 94% 29.71 in 2.8 mi SSW 25.3 mph - N/A Rain Light Rain
10:50 AM 53.6 °F - 51.8 °F 94% 29.74 in 2.8 mi SW 24.2 mph - N/A Rain Light Rain
11:20 AM 53.6 °F - 51.8 °F 94% 29.74 in 2.8 mi SW 20.7 mph - N/A Rain Light Rain
11:50 AM 53.6 °F - 51.8 °F 94% 29.74 in 1.9 mi West 10.4 mph - N/A Rain Heavy Rain
12:20 PM 53.6 °F - 50.0 °F 88% 29.74 in 6.2 mi WSW 18.4 mph - N/A Rain Light Rain
12:50 PM 51.8 °F - 48.2 °F 88% 29.77 in 6.2 mi WSW 20.7 mph - N/A Rain Light Rain
1:00 PM 52 °F - 49 °F 85% 29.78 in 9 mi WSW 20.1 mph - - Rain Light Rain
1:20 PM 51.8 °F - 46.4 °F 82% 29.80 in 6.2 mi West 16.1 mph 29.9 mph N/A   Scattered Clouds
1:50 PM 50.0 °F - 46.4 °F 87% 29.80 in 6.2 mi WSW 18.4 mph - N/A   Scattered Clouds
2:20 PM 50.0 °F - 44.6 °F 82% 29.80 in 6.2 mi West 18.4 mph 29.9 mph N/A   Scattered Clouds
2:50 PM 50.0 °F - 44.6 °F 82% 29.80 in 6.2 mi WSW 18.4 mph - N/A   Scattered Clouds
3:20 PM 50.0 °F - 44.6 °F 82% 29.83 in 6.2 mi WSW 16.1 mph 27.6 mph N/A   Scattered Clouds
3:50 PM 50.0 °F - 42.8 °F 76% 29.83 in 6.2 mi WSW 18.4 mph 29.9 mph N/A   Scattered Clouds
4:00 PM 50 °F - 44 °F 72% 29.86 in 16 mi WSW 17.9 mph - -   Partly Cloudy
4:20 PM 50.0 °F - 41.0 °F 71% 29.83 in 6.2 mi West 17.3 mph 28.8 mph N/A   Partly Cloudy
4:50 PM 50.0 °F - 41.0 °F 71% 29.86 in 6.2 mi WSW 21.9 mph - N/A   Partly Cloudy
5:20 PM 48.2 °F - 41.0 °F 76% 29.86 in 6.2 mi West 18.4 mph 33.4 mph N/A   Partly Cloudy
5:50 PM 48.2 °F - 41.0 °F 76% 29.89 in 6.2 mi WSW 18.4 mph - N/A   Partly Cloudy
6:20 PM 48.2 °F - 39.2 °F 71% 29.92 in 6.2 mi WSW 21.9 mph 33.4 mph N/A   Partly Cloudy
6:50 PM 48.2 °F - 39.2 °F 71% 29.92 in 6.2 mi WSW 21.9 mph - N/A   Partly Cloudy
7:00 PM 47 °F - 40 °F 69% 29.95 in 16 mi WSW 22.4 mph - -   Partly Cloudy
7:20 PM 46.4 °F 38.1 °F 41.0 °F 81% 29.95 in 6.2 mi WSW 24.2 mph 36.8 mph N/A   Scattered Clouds
7:50 PM 46.4 °F 38.1 °F 39.2 °F 76% 29.95 in 6.2 mi WSW 24.2 mph - N/A   Scattered Clouds
8:20 PM 46.4 °F 38.3 °F 39.2 °F 76% 29.95 in 6.2 mi WSW 23.0 mph - N/A   Scattered Clouds
8:50 PM 46.4 °F 37.9 °F 39.2 °F 76% 29.98 in 6.2 mi WSW 25.3 mph - N/A   Partly Cloudy
9:20 PM 46.4 °F 38.1 °F 39.2 °F 76% 30.01 in 6.2 mi WSW 24.2 mph - N/A   Scattered Clouds
9:50 PM 44.6 °F 36.1 °F 39.2 °F 81% 30.01 in 6.2 mi WSW 21.9 mph - N/A   Scattered Clouds
10:00 PM 45 °F - 39 °F 73% 30.03 in 12 mi WSW 22.4 mph - -   Partly Cloudy
10:20 PM 44.6 °F 36.9 °F 39.2 °F 81% 30.01 in 6.2 mi WSW 18.4 mph - N/A   Scattered Clouds
10:50 PM 44.6 °F 36.6 °F 39.2 °F 81% 30.04 in 6.2 mi WSW 19.6 mph - N/A   Partly Cloudy
11:20 PM 44.6 °F 36.9 °F 39.2 °F 81% 30.04 in 6.2 mi WSW 18.4 mph - N/A   Scattered Clouds
11:50 PM 44.6 °F 36.6 °F 39.2 °F 81% 30.06 in 6.2 mi WSW 19.6 mph - N/A   Scattered Clouds